This is the latest recevied weather packets stored in our database for station/object KJ6HT. If no packets are shown the sender has not sent any weather packets the latest 10 day(s).
| Time | Temp. | Humidity | Pressure | Rain* | Wind** | Luminosity | Snow |
|---|---|---|---|---|---|---|---|
| 1787915720 | 25.56° C | 77% | 1008.6 hPa | 0 mm | - | - | - |
| 1787914875 | 26.67° C | 73% | 1008.4 hPa | 0 mm | - | - | - |
| 1787913933 | 26.11° C | 76% | 1008.6 hPa | 0 mm | - | - | - |
| 1787913084 | 26.11° C | 74% | 1008.5 hPa | 0 mm | - | - | - |
| 1787912173 | 27.78° C | 69% | 1008.5 hPa | 0 mm | - | - | - |
| 1787911239 | 26.11° C | 73% | 1008.4 hPa | 0 mm | - | - | - |
| 1787910322 | 27.22° C | 70% | 1008.4 hPa | 0 mm | - | - | - |
| 1787909474 | 27.78° C | 68% | 1008.3 hPa | 0 mm | - | - | - |
| 1787908530 | 27.22° C | 71% | 1008.3 hPa | 0 mm | - | - | - |
| 1787907611 | 28.33° C | 66% | 1008.4 hPa | 0 mm | - | - | - |
| 1787906783 | 28.33° C | 67% | 1008.4 hPa | 0 mm | - | - | - |
| 1787905831 | 27.78° C | 69% | 1008.4 hPa | 0 mm | - | - | - |
| 1787904938 | 28.89° C | 64% | 1008.4 hPa | 0 mm | - | - | - |
| 1787904069 | 28.33° C | 67% | 1008.4 hPa | 0 mm | - | - | - |
| 1787903125 | 28.89° C | 64% | 1008.4 hPa | 0 mm | - | - | - |
| 1787902281 | 30° C | 61% | 1008.5 hPa | 0 mm | - | - | - |
| 1787901370 | 28.89° C | 64% | 1008.4 hPa | 0 mm | - | - | - |
| 1787900409 | 28.89° C | 65% | 1008.1 hPa | 0 mm | - | - | - |
| 1787899587 | 28.89° C | 64% | 1008.1 hPa | 0 mm | - | - | - |
| 1787898644 | 28.89° C | 64% | 1008 hPa | 0 mm | - | - | - |
| 1787897703 | 28.89° C | 63% | 1008.1 hPa | 0 mm | - | - | - |
| 1787896855 | 28.89° C | 61% | 1008.1 hPa | 0 mm | - | - | - |
| 1787895917 | 29.44° C | 58% | 1008 hPa | 0 mm | - | - | - |
| 1787895096 | 30.56° C | 58% | 1007.9 hPa | 0 mm | - | - | - |
| 1787894145 | 29.44° C | 61% | 1007.9 hPa | 0 mm | - | - | - |
* Rain latest hour (hover to see other rain measurements)
** Current wind speed in m/s (hover to see current wind gust speed)